www.pogodaiklimat.ru

Погода и климат >> Архив погоды >> Узбекистан >> Джизак


ПОГОДА в Джизаке

  • Прогноз погоды в Джизаке
  • Монитор погоды в Джизаке

АРХИВ ПОГОДЫ в Джизаке

Время (UTC), дата Ветер
(напр.,м/с)
 
Видим.   Явления Облачность Т
(С)
Тd
(С)
f
(%)
Тe
(С)
Тes
(С)
Комфортность P
(гПа)
Po
(гПа)
Тmin
(С)
Tmax
(С)
R
(мм)
R24
(мм)
S
(см)
12 18.06 СВ 4 50 км 3/1 1000 м
[Cu med, cong Ci fib]
+33.9 +15.4 33 +36 +39 душно 1003.8 966.4
15 18.06 штиль 0 50 км 3/0
[Ac lent Ci fib]
+31.6 +14.7 36 +34 +34 душно 1004.1 966.5 +34.7
18 18.06 З 1 н/о 3/0
[Ac lent]
+22.6 +13.2 55 +26 +26 жарко 1006.5 967.5 +34.7
21 18.06 СЗ 1 н/о ясно +21.6 +11.8 54 +24 +24 комфорт 1007.4 968.3
00 19.06 СЗ 2 50 км 3/0
[Ac lent]
+17.4 +10.3 63 +18 +18 1007.2 967.5
03 19.06 штиль 0 50 км 3/0
[Ac lent Ci fib]
+24.8 +14.2 52 +27 +35 жарко 1006.6 968.0
06 19.06 С 2 50 км 8/0
[Ac As Ci fib]
+29.8 +14.8 40 +32 +45 душно 1005.6 967.6 +16.4
09 19.06 С 3 50 км 9/1 1000 м
[Cu med, cong Ac As Cc]
+32.3 +14.4 34 +34 +42 душно 1004.6 967.0
12 19.06 С 2 50 км 9/3 600 м
[Cb cap Ac As]
+31.8 +13.8 34 +33 +35 жарко 1004.5 966.9
15 19.06 штиль 0 50 км 8/0
[Ac As]
+29.2 +13.4 38 +31 +31 жарко 1005.0 967.0 +32.3
18 19.06 штиль 0 н/о 3/0
[Ac lent]
+20.4 +12.0 59 +22 +22 комфорт 1006.2 967.0 +32.3
21 19.06 штиль 0 н/о ясно +18.0 +10.7 62 +18 +18 1006.4 966.8
00 20.06 З 1 50 км 1/0
[Ac lent]
+17.2 +10.0 63 +18 +18 1006.4 966.8
03 20.06 штиль 0 50 км 1/0
[Ac lent]
+24.3 +13.5 51 +27 +34 жарко 1006.4 967.7
06 20.06 С 1 50 км ясно +30.8 +15.3 39 +33 +55 опасность
солнечного
удара
1005.7 967.9 +16.2
09 20.06 СВ 4 50 км 3/3 1000 м
[Cu med, cong]
+33.0 +15.1 34 +35 +44 душно 1004.9 967.3
12 20.06 СЗ 2 50 км 3/3 1000 м
[Cu med, cong]
+33.8 +13.9 30 +35 +39 очень
жарко
1003.7 966.3
15 20.06 штиль 0 50 км ясно +30.4 +13.1 35 +32 +32 жарко 1004.3 966.4 +34.5
18 20.06 штиль 0 н/о ясно +21.1 +12.0 56 +23 +23 комфорт 1005.4 966.3 +34.5
21 20.06 штиль 0 н/о ясно +18.3 +11.3 64 +19 +19 1005.3 965.8
00 21.06 З 1 50 км ясно +17.6 +10.7 64 +19 +19 1005.9 966.3
03 21.06 С 2 50 км ясно +25.7 +14.5 50 +28 +34 жарко 1005.7 967.2
06 21.06 СВ 3 50 км 1/1 1000 м
[Cu med, cong]
+32.8 +16.5 38 +36 +50 очень
душно
1004.6 967.0 +17.0
09 21.06 В 4 50 км 3/3 1000 м
[Cu med, cong]
+35.4 +16.0 32 +38 +46 очень
душно
1003.6 966.5
12 21.06 С 4 50 км 1/1 1000 м
[Cu med, cong]
+35.8 +15.9 31 +38 +42 очень
душно
1002.5 965.4
15 21.06 штиль 0 50 км 8/5 600 м
[Cb cap Ci fib]
+34.0 +15.1 32 +36 +36 душно 1002.8 965.4 +35.9
18 21.06 штиль 0 н/о 3/0
[Ac lent]
+24.2 +15.4 58 +27 +27 жарко 1004.7 966.0 +35.9
21 21.06 СЗ 3 н/о 3/1 600 м
[Cb cap Ac lent]
+24.6 +13.9 51 +27 +27 жарко 1004.9 966.2
00 22.06 штиль 0 50 км 4/0
[Ac As]
+20.7 +12.4 59 +23 +23 комфорт 1006.4 967.1
03 22.06 СЗ 2 50 км 1/0
[Ac trans]
+26.6 +15.1 49 +29 +35 жарко 1006.4 968.0
06 22.06 С 1 50 км 4/0
[Ac lent]
+32.2 +17.7 42 +36 +51 опасность
солнечного
удара
1006.8 969.1 +19.3
09 22.06 СЗ 1 50 км 9/0
[Ac As]
+34.1 +17.5 37 +38 +45 очень
душно
1006.5 969.1
12 22.06 С 2 50 км 6/0
[Ac As Ci fib]
+34.6 +15.1 31 +36 +40 душно 1005.6 968.3
15 22.06 штиль 0 50 км 1/0
[Ac lent]
+31.5 +14.8 36 +33 +33 жарко 1006.4 968.7 +35.5
18 22.06 штиль 0 н/о 1/0
[Ci fib]
+23.0 +13.7 56 +26 +26 жарко 1007.8 968.9 +35.5
21 22.06 штиль 0 н/о 3/0
[Cc]
+19.7 +11.1 58 +21 +21 комфорт 1009.2 969.7
00 23.06 штиль 0 50 км 1/0
[Ac lent]
+17.7 +10.2 61 +18 +18 1009.3 969.5
03 23.06 С 2 50 км ясно +25.3 +15.2 54 +28 +34 жарко 1008.9 970.2
06 23.06 СЗ 2 50 км ясно +32.1 +18.8 45 +37 +55 опасность
солнечного
удара
1007.5 969.8 +17.7
09 23.06 СВ 3 50 км ясно +34.9 +18.2 37 +39 +54 опасность
солнечного
удара
1006.6 969.2
12 23.06 С 2 50 км 3/0
[Ac As]
+34.9 +17.2 35 +38 +43 очень
душно
1005.8 968.5
15 23.06 СВ 1 50 км 5/0
[Ac lent Ci fib]
+31.8 +16.0 39 +35 +35 очень
душно
1007.1 969.3 +35.5
18 23.06 ЮЗ 1 н/о 3/0
[Ci fib]
+23.8 +13.5 52 +26 +26 жарко 1008.5 969.7 +35.5
21 23.06 З 1 н/о 3/0
[Ci fib]
+20.8 +12.1 57 +24 +24 комфорт 1008.6 969.2
00 24.06 З 1 50 км 3/0
[Ac lent Ci fib]
+22.9 +12.6 52 +26 +26 жарко 1009.0 970.0
03 24.06 штиль 0 50 км 3/0
[Ci fib]
+25.7 +15.7 54 +29 +37 душно 1009.7 971.1
06 24.06 С 2 50 км 4/0
[Ci fib]
+31.7 +18.7 46 +37 +53 опасность
солнечного
удара
1009.2 971.3 +20.8
09 24.06 С 2 50 км 3/1 1000 м
[Cu med, cong Ci fib]
+34.1 +18.5 40 +39 +54 опасность
солнечного
удара
1008.0 970.6
12 24.06 С 1 50 км 3/1 1000 м
[Cu med, cong Ci fib]
+35.4 +17.5 35 +39 +45 очень
душно
1007.1 969.8
15 24.06 штиль 0 50 км 8/0
[Ci fib]
+32.0 +17.3 41 +36 +36 очень
душно
1007.6 969.8 +36.2
18 24.06 штиль 0 н/о 6/0
[Ci fib]
+23.8 +15.7 60 +27 +27 жарко 1008.6 969.8 +36.2
21 24.06 штиль 0 н/о ясно +20.8 +13.5 63 +23 +23 комфорт 1008.6 969.4
00 25.06 штиль 0 50 км ясно +18.8 +12.5 67 +20 +20 1009.0 969.5
03 25.06 штиль 0 50 км ясно +26.7 +15.0 49 +29 +38 жарко 1008.8 970.4
06 25.06 СВ 2 50 км ясно +33.2 +18.3 41 +38 +56 опасность
солнечного
удара
1007.5 970.0 +18.8
09 25.06 С 5 50 км 3/3 1000 м
[Cu med, cong]
+35.4 +18.1 36 +39 +46 очень
душно
1006.9 969.6

 

Местоположение метеостанции Джизак (Джизакская область, Узбекистан): широта 40.12 долгота 67.83 высота над уровнем моря 345 м.

В архиве по умолчанию представлена погода в Джизаке за последнюю неделю. Архивные данные за месяц целиком и за предыдущие месяцы, начиная с января 2011 года, Вы можете получить, выбрав интересующий диапазон дат из раскрывающегося списка и нажав кнопку "Ввод!".


*Определитесь, кто Вы:
робот инопланетянин человек

Внимание! Время в таблицах - всемирное. Для получения местного времени необходимо прибавить поправку, которая равна 5 ч.

Смотрите также архив погоды в соседних городах и на ближайших метеорологических станциях:

Погода в Галляарале (Джизакская область, Узбекистан) (36 км)
Погода в Богарном (Джизакская область, Узбекистан) (39 км)
Погода в Дустлике (Джизакская область, Узбекистан) (61 км)
Погода в Янгикишлаке (Джизакская область, Узбекистан) (63 км)
Погода в Пенджикенте (Таджикистан) (73 км)
Погода в Самарканд аэропорту (Самаркандская область, Узбекистан) (79 км)
Погода в Бахмале (Джизакская область, Узбекистан) (80 км)
Погода в Западном Арнасае (Джизакская область, Узбекистан) (80 км)
Погода в Жетысае (Южно-Казахстанская область, Казахстан) (85 км)
Погода в Янгиере (Сырдарьинская область, Узбекистан) (86 км)

Пояснения к столбцам:

Ветер - указаны скорость ветра в м/с - средняя за 10 мин, порывы в срок и между сроками (в фигурных скобках) и направление, откуда дует ветер: С - северный, СВ - северо-восточный, В - восточный, ЮВ - юго-восточный, Ю - южный, ЮЗ - юго-западный, З - западный, СЗ - северо-западный.
Видимость - горизонтальная дальность видимости в метрах или километрах. При видимости от 1 до 10 км при отсутствии осадков обычно наблюдается дымка, при ухудшении видимости до 1 км и менее - туман. В сухую погоду видимость может ухудшаться дымом, пылью или мглою.
Явления - указаны атмосферные явления, наблюдавшиеся в срок или в последний час перед сроком; фигурными скобками обозначены явления, наблюдавшиеся между сроками (за 1-3 часа до срока); квадратными скобками обозначены град или гололедные отложения с указанием их диаметра в мм.
Облачность - указаны через наклонную черту общая и нижняя облачность в баллах и высота нижней границы облаков в метрах; квадратными скобками обозначены формы облаков: Ci - перистые, Cs - перисто-слоистые, Cc - перисто-кучевые, Ac - высококучевые, As - высокослоистые, Sc - слоисто-кучевые, Ns - слоисто-дождевые, Cu - кучевые, Cb - кучево-дождевые. Подробнее классификацию облаков см. в Атласе облаков (PDF).
T - Температура воздуха - температура, измеренная на высоте 2 м над землей.
Td - Температура точки росы - температура, при понижении до которой содержащийся в воздухе водяной пар достигнет насыщения.
f - Относительная влажность воздуха - влажноcть воздуха, измеренная на высоте 2 м над землей.
Te - Эффективная температура - температура, которую ощущает одетый по сезону человек в тени. Характеристика душности погоды. При расчете учитывается влияние влажности воздуха и скорости ветра на теплоощущения человека.
Tes - Эффективная температура на солнце - температура, которую ощущает человек, с поправкой на солнечный нагрев. Характеристика знойности погоды. Зависит от высоты солнца над горизонтом, облачности и скорости ветра. Ночью, в пасмурную погоду, а также при ветре 12 м/с и более поправка равна нулю.
P - Атмосферное давление - приведенное к уровню моря атмосферное давление.
Po - Атмосферное давление - измеренное на уровне метеостанции атмосферное давление.
Tmin - Минимальная температура - минимум температуры воздуха на высоте 2 м над землей.
Tmax - Максимальная температура - максимум температуры воздуха на высоте 2 м над землей.
R - Количество осадков - Количество выпавших осадков за период времени, мм. При наведении курсора мыши на число - период времени, за который выпало указанное количество осадков.
R24 - Количество осадков - Количество выпавших осадков за 24 часа, мм.
S - Снежный покров - Высота снежного покрова, см. При наведении курсора мыши на число - состояние снежного покрова и степень покрытия местности в баллах.